This is the latest recevied weather packets stored in our database for station/object N5CSU. If no packets are shown the sender has not sent any weather packets the latest 10 day(s).
| Time | Temp. | Humidity | Pressure | Rain* | Wind** | Luminosity | Snow |
|---|---|---|---|---|---|---|---|
| 1777840098 | 26.67° C | 36% | 1018.2 hPa | 0 mm | - | 9 W/m² | - |
| 1777839796 | 26.67° C | 35% | 1018.3 hPa | 0 mm | - | 9 W/m² | - |
| 1777839494 | 26.67° C | 36% | 1018.3 hPa | 0 mm | - | 11 W/m² | - |
| 1777839191 | 27.22° C | 35% | 1018.4 hPa | 0 mm | - | 10 W/m² | - |
| 1777838888 | 27.22° C | 33% | 1018.6 hPa | 0 mm | - | 10 W/m² | - |
| 1777838584 | 27.22° C | 31% | 1018.5 hPa | 0 mm | - | 10 W/m² | - |
| 1777838282 | 27.22° C | 34% | 1018.6 hPa | 0 mm | - | 10 W/m² | - |
| 1777837978 | 27.22° C | 34% | 1018.7 hPa | 0 mm | - | 10 W/m² | - |
| 1777837675 | 26.67° C | 34% | 1018.8 hPa | 0 mm | - | 11 W/m² | - |
| 1777837371 | 27.22° C | 35% | 1018.8 hPa | 0 mm | - | 11 W/m² | - |
| 1777837067 | 27.22° C | 38% | 1018.8 hPa | 0 mm | - | 33 W/m² | - |
| 1777836763 | 27.22° C | 35% | 1019.1 hPa | 0 mm | - | 28 W/m² | - |
| 1777836459 | 27.22° C | 37% | 1018.9 hPa | 0 mm | - | 111 W/m² | - |
| 1777836154 | 26.67° C | 37% | 1019.1 hPa | 0 mm | - | 55 W/m² | - |
| 1777835851 | 26.67° C | 40% | 1019.2 hPa | 0 mm | - | 32 W/m² | - |
| 1777835548 | 26.67° C | 39% | 1019.2 hPa | 0 mm | - | 19 W/m² | - |
| 1777835245 | 26.67° C | 40% | 1019.4 hPa | 0 mm | - | 16 W/m² | - |
| 1777834941 | 26.67° C | 36% | 1019.5 hPa | 0 mm | - | 12 W/m² | - |
| 1777834639 | 26.67° C | 39% | 1019.4 hPa | 0 mm | - | 12 W/m² | - |
| 1777834334 | 26.67° C | 39% | 1019.5 hPa | 0 mm | - | 28 W/m² | - |
| 1777834029 | 26.67° C | 42% | 1019.6 hPa | 0 mm | - | 39 W/m² | - |
| 1777833726 | 26.67° C | 41% | 1019.6 hPa | 0 mm | - | 13 W/m² | - |
| 1777833422 | 26.11° C | 37% | 1019.7 hPa | 0 mm | - | 65 W/m² | - |
| 1777833119 | 26.67° C | 40% | 1019.7 hPa | 0 mm | - | 54 W/m² | - |
| 1777832817 | 26.67° C | 41% | 1020 hPa | 0 mm | - | 306 W/m² | - |
* Rain latest hour (hover to see other rain measurements)
** Current wind speed in m/s (hover to see current wind gust speed)